Location: Unspecified
(43.4354°N, 0.0000°E)
Time: 13:38:19
(UTC+00:00)

A-11 Canister half - Pass Details

Date: 25 June 2019
Orbit: 1514 x 1686 km, 47.2° (Epoch: 19 August)

Event Time Altitude Azimuth Distance (km) Brightness Sun altitude
Rises 12:22:35 0° 271° (W) 4,888 11.7 69.5°
Reaches altitude 10° 12:25:48 10° 273° (W) 3,881 11.3 69.4°
Maximum altitude 12:35:41 71° 358° (N) 1,675 10.2 68.8°
Drops below altitude 10° 12:45:13 10° 82° (E) 3,744 11.0 68.1°
Sets 12:48:16 0° 85° (E) 4,708 11.4 67.9°
